Regional Weather Roundup
Issued by NWS Little Rock, AR

Home | Current Version | Previous Version | Graphics & Text | Print | Product List | Glossary On
Versions: 1 2 3 4 5 6 7 8 9 10 11 12 13 14 15 16 17 18 19 20 21 22 23 24 25 26 27 28 29 30 31 32 33 34 35 36 37 38 39 40 41 42 43 44 45 46 47 48 49 50
000
ASUS44 KLZK 222205
RWRLZK

WEATHER ROUNDUP FOR ARKANSAS
NATIONAL WEATHER SERVICE LITTLE ROCK AR
400 PM CST SAT NOV 22 2014

NOTE: "FAIR" INDICATES FEW OR NO CLOUDS BELOW 12,000 FEET WITH NO
SIGNIFICANT WEATHER AND/OR OBSTRUCTIONS TO VISIBILITY.

ARZ001-003-010-029-222300-
NORTHWEST ARKANSAS

CITY           SKY/WX    TMP DP  RH WIND       PRES   REMARKS
FAYETTEVILLE   LGT RAIN  53  53 100 S9        29.94F
FORT SMITH     RAIN      54  52  93 E7        29.97F FOG
HARRISON       LGT RAIN  51  51 100 S14       29.97F FOG
BENTONVILLE    CLOUDY    54  48  82 S14G22    29.91F
ROGERS         LGT RAIN  52  51  97 S16       29.91F
SILOAM SPGS    CLOUDY    54  46  76 S13       29.92F
HIGHFILL       RAIN      53  52  96 S15       29.90F
SPRINGDALE     PTSUNNY   52  52 100 S9        29.95F
$$

ARZ004-005-016-222300-
NORTH CENTRAL ARKANSAS

CITY           SKY/WX    TMP DP  RH WIND       PRES   REMARKS
BATESVILLE     CLOUDY    61  48  63 S5        30.02F
FLIPPIN        CLOUDY    52  48  87 S6        30.00F
MTN HOME       LGT RAIN  51  51 100 S6        30.00S FOG
$$

ARZ040-041-222300-
WEST CENTRAL ARKANSAS

CITY           SKY/WX    TMP DP  RH WIND       PRES   REMARKS
MENA           CLOUDY    59  55  88 CALM      29.98S
MOUNT IDA      CLOUDY    59  55  87 CALM      29.96F
$$

ARZ009-017-025-026-028-222300-
NORTHEAST ARKANSAS

CITY           SKY/WX    TMP DP  RH WIND       PRES   REMARKS
CORNING        FAIR      59  48  67 S10       30.04S
JONESBORO      CLOUDY    62  45  53 S14       30.04F
NEWPORT        CLOUDY    61  49  64 S10       30.04F
WALNUT RIDGE   CLOUDY    61  46  59 S12       30.03S
BLYTHEVILLE    CLOUDY    72  42  34 S10       30.06F
$$

ARZ022-023-033-042-044-222300-
CENTRAL ARKANSAS

CITY           SKY/WX    TMP DP  RH WIND       PRES   REMARKS
LITTLE ROCK    PTSUNNY   65  50  58 E12       29.98F
N LITTLE ROCK  MOCLDY    63  54  73 E7        29.98F
JACKSONVILLE   PTCLDY    65  52  63 E8        30.00F
SEARCY         CLOUDY    63  51  65 E3        30.03F
HOT SPRINGS    PTSUNNY   65  52  62 CALM      29.99R
RUSSELLVILLE   CLOUDY    57  53  86 N5        30.00F
CLINTON        MOCLDY    55  54  94 CALM      30.04S
$$

ARZ036-222300-
EAST ARKANSAS

CITY           SKY/WX    TMP DP  RH WIND       PRES   REMARKS
WEST MEMPHIS   MOCLDY    64  45  49 S13       30.04F
$$

ARZ050-053-066-070-073-222300-
SOUTHWEST ARKANSAS

CITY           SKY/WX    TMP DP  RH WIND       PRES   REMARKS
ARKADELPHIA    FAIR      69  55  60 S5        29.98S
CAMDEN         MOSUNNY   68  54  60 NE9       29.98R
TEXARKANA      PTSUNNY   68  55  63 SE7       29.94F
EL DORADO      PTSUNNY   68  56  65 S8        29.99R
DE QUEEN       CLOUDY    62  57  83 NE6       29.93F
$$

ARZ056-057-069-222300-
SOUTHEAST ARKANSAS

CITY           SKY/WX    TMP DP  RH WIND       PRES   REMARKS
PINE BLUFF     SUNNY     68  53  58 SE15      29.98F
STUTTGART      PTCLDY    64  52  63 SE10      30.01F
MONTICELLO     MOSUNNY   68  54  60 SE8       29.99F

$$




USA.gov is the U.S. government's official web portal to all federal, state and local government web resources and services.